Location: Fredericksburg
(30.2750°N, 98.8720°W)
Time: 14:46:50
(UTC-05:00)

Amateur Radio Satellites - All Passes

Search period start: 07 July 2015 14:16
Search period end: 08 July 2015 14:16
Location: Fredericksburg, 30.2750°N, 98.8720°W

Satellite Date Start Highest point End Downlink Frequencies (MHz)
Time Altitude Azimuth
Oscar 19 07 Jul 14:23:01 14:28:09 85° 74° (ENE) 14:33:18 437.125/150
BEESAT 07 Jul 14:26:46 14:30:10 20° 94° (E) 14:33:43 436.000
SWISSCUBE 07 Jul 14:42:11 14:46:28 33° 97° (E) 14:50:48 437.505
ITAMSAT 1 07 Jul 14:42:33 14:47:07 32° 72° (ENE) 14:51:46 435.822/435.867
AO-7 07 Jul 14:46:41 14:47:16 10° 56° (NE) 14:48:36 29.400- 29.500
ITUPSAT 1 07 Jul 14:49:06 14:53:29 35° 98° (E) 14:57:52 437.325
Gurwin Techsat 1B 07 Jul 14:55:31 15:00:34 47° 74° (ENE) 15:05:39 435.225
PHONESAT 2.4 07 Jul 15:00:00 15:03:08 32° 216° (SW) 15:06:15 2401.200-2431.200
AIST 1 07 Jul 15:08:36 15:10:47 14° 89° (E) 15:13:13
JUGNU 07 Jul 15:09:36 15:13:55 21° 167° (SSE) 15:18:18 437.505
JAS-2 07 Jul 15:21:44 15:25:09 19° 68° (ENE) 15:28:52 435.910
ISS 07 Jul 15:22:42 15:25:55 86° 41° (NE) 15:29:09 145.825
PCSat 07 Jul 15:26:31 15:31:51 67° 113° (ESE) 15:37:14 145.827
SO-50 07 Jul 15:35:30 15:38:42 19° 110° (ESE) 15:42:08 436.795
YUBILEINY 07 Jul 15:49:09 15:57:53 72° 266° (W) 16:06:36 435.215
BEESAT 3 07 Jul 15:54:53 15:57:43 19° 54° (NE) 16:00:38 437.485
Cosmos 2491 07 Jul 16:03:38 16:12:29 89° 277° (W) 16:21:20 435.465 / 435.565
BEESAT 07 Jul 16:03:49 16:08:04 31° 287° (WNW) 16:12:13 436.000
SRMSAT 07 Jul 16:08:56 16:12:22 16° 164° (SSE) 16:15:53 437.500
BEESAT 2 07 Jul 16:11:43 16:14:54 22° 55° (NE) 16:18:07 435.950
HORYU 2 07 Jul 16:16:37 16:20:38 37° 74° (ENE) 16:24:44 437.375
SWISSCUBE 07 Jul 16:20:40 16:24:08 19° 290° (WNW) 16:27:24 437.505
KKS-1 07 Jul 16:22:17 16:26:41 63° 101° (E) 16:31:03 437.445
ITAMSAT 1 07 Jul 16:22:32 16:26:39 23° 265° (W) 16:30:39 435.822/435.867
ITUPSAT 1 07 Jul 16:27:47 16:31:08 18° 290° (WNW) 16:34:17 437.325
AO-7 07 Jul 16:30:37 16:38:48 66° 71° (ENE) 16:47:05 29.400- 29.500
Gurwin Techsat 1B 07 Jul 16:37:31 16:40:49 16° 268° (W) 16:43:51 435.225
AIST 1 07 Jul 16:44:11 16:48:10 33° 281° (W) 16:52:09
Cosmos 2504 07 Jul 16:45:47 16:52:02 27° 75° (ENE) 16:58:53 435.465 / 435.565
JUGNU 07 Jul 16:57:21 17:02:28 30° 177° (S) 17:07:36 437.505
JAS-2 07 Jul 17:05:18 17:10:04 37° 263° (W) 17:14:55 435.910
MOZHAYETS 4 07 Jul 17:05:39 17:08:30 17° 93° (E) 17:11:33
STARS 07 Jul 17:05:45 17:10:06 65° 283° (WNW) 17:14:24 437.465
PCSat 07 Jul 17:12:58 17:15:50 14° 309° (NW) 17:18:26 145.827
O/OREOS (USA 219) 07 Jul 17:14:30 17:18:10 24° 64° (ENE) 17:21:56 437.305
SO-50 07 Jul 17:14:42 17:19:00 35° 303° (WNW) 17:23:24 436.795
BEESAT 3 07 Jul 17:32:16 17:35:40 26° 248° (WSW) 17:38:58 437.485
CUTE-I 07 Jul 17:47:54 17:47:59 10° 66° (ENE) 17:48:28 437.470
BEESAT 2 07 Jul 17:49:42 17:52:52 22° 249° (WSW) 17:55:54 435.950
AIST 2 07 Jul 17:52:33 17:56:43 75° 62° (ENE) 18:00:49 435.215
HORYU 2 07 Jul 17:55:03 17:57:27 14° 267° (W) 17:59:38 437.375
SRMSAT 07 Jul 17:56:07 18:01:03 27° 172° (S) 18:05:58 437.500
Cosmos 2491 07 Jul 18:06:26 18:10:45 13° 295° (WNW) 18:14:16 435.465 / 435.565
Cubesat XI-IV 07 Jul 18:18:55 18:23:01 24° 70° (ENE) 18:27:17 437.490
AO-7 07 Jul 18:26:02 18:32:12 21° 266° (W) 18:37:56 29.400- 29.500
Cosmos 2504 07 Jul 18:37:02 18:44:25 48° 269° (W) 18:52:13 435.465 / 435.565
MOZHAYETS 4 07 Jul 18:41:36 18:45:50 35° 286° (WNW) 18:50:01
JUGNU 07 Jul 18:46:02 18:51:03 28° 187° (S) 18:56:04 437.505
O/OREOS (USA 219) 07 Jul 18:53:55 18:57:30 22° 257° (WSW) 19:00:59 437.305
CUSAT 1 07 Jul 18:57:17 18:58:16 12° 78° (ENE) 18:59:24 437.405
CUBESAT XI-V 07 Jul 19:18:00 19:22:19 37° 98° (E) 19:26:36 437.345
CUTE-I 07 Jul 19:22:08 19:27:29 79° 257° (WSW) 19:32:54 437.470
BRITE-PL 07 Jul 19:31:03 19:33:01 12° 70° (ENE) 19:35:17 437.365/2234.400
PRISM 07 Jul 19:37:06 19:39:12 14° 93° (E) 19:41:29 437.425
SRMSAT 07 Jul 19:44:38 19:49:47 30° 182° (S) 19:54:53 437.500
Cubesat XI-IV 07 Jul 19:58:07 20:02:57 33° 263° (W) 20:07:45 437.490
STRAND 1 07 Jul 20:01:18 20:05:56 34° 98° (E) 20:10:36 437.568
GOMX 1 07 Jul 20:23:53 20:28:01 26° 74° (ENE) 20:32:03 467.674
DANDE 07 Jul 20:25:31 20:27:46 26° 264° (W) 20:30:05 436.750
GONETS M04 07 Jul 20:26:03 20:34:10 44° 78° (ENE) 20:42:23
SEEDS 07 Jul 20:35:18 20:35:46 10° 70° (ENE) 20:36:31 437.485
JUGNU 07 Jul 20:35:46 20:39:36 17° 195° (SSW) 20:43:19 437.505
HO-68 07 Jul 20:43:19 20:49:39 37° 69° (ENE) 20:56:07 435.675
DOVE 4 07 Jul 20:50:18 20:54:24 29° 74° (ENE) 20:58:25 437.250
CUBESAT XI-V 07 Jul 20:56:33 20:59:28 16° 290° (WNW) 21:02:10 437.345
COMPASS 1 07 Jul 21:03:59 21:06:52 19° 72° (ENE) 21:09:53 437.405
BRITE-PL 07 Jul 21:05:43 21:11:11 65° 259° (W) 21:16:20 437.365/2234.400
CINEMA 3 07 Jul 21:10:09 21:13:14 19° 73° (ENE) 21:16:23 145.822/145.860
PRISM 07 Jul 21:10:59 21:14:45 33° 287° (WNW) 21:18:28 437.425
Oscar 11 07 Jul 21:22:22 21:23:33 11° 70° (ENE) 21:25:02 145.826/435.025
CUTE 1.7 + AOD 2 07 Jul 21:24:42 21:28:50 60° 76° (ENE) 21:33:00 437.475
AUBIESAT-1 07 Jul 21:27:46 21:30:17 15° 98° (E) 21:33:04 437.475
CANX-2 07 Jul 21:28:35 21:32:46 77° 78° (ENE) 21:36:59 2200.000
SRMSAT 07 Jul 21:33:58 21:38:29 22° 192° (SSW) 21:42:56 437.500
CUBEBUG 2 07 Jul 21:34:30 21:36:54 15° 72° (ENE) 21:39:29 437.445
STRAND 1 07 Jul 21:41:05 21:44:56 21° 290° (WNW) 21:48:37 437.568
FUNcube-1 07 Jul 21:55:09 21:57:27 15° 72° (ENE) 21:59:57 145.935
Cosmos 2499 07 Jul 21:56:07 22:03:21 36° 77° (ENE) 22:11:10 435.465 / 435.565
DELFI C3 07 Jul 21:59:49 22:02:47 21° 73° (ENE) 22:05:52 145.870
GOMX 1 07 Jul 22:01:42 22:06:04 27° 264° (W) 22:10:08 467.674
M-CUBED/EXP-1 PRIME 07 Jul 22:04:04 22:08:23 48° 104° (ESE) 22:12:57 437.505
SEEDS 07 Jul 22:07:10 22:11:11 47° 261° (W) 22:15:13 437.485
AAUSAT CUBESAT 2 07 Jul 22:08:43 22:12:50 72° 259° (W) 22:16:58 437.432
UWE-3 07 Jul 22:16:06 22:20:02 38° 75° (ENE) 22:23:56 435.000/436.395/437.385
GONETS M04 07 Jul 22:23:22 22:30:48 31° 272° (W) 22:37:58
DOVE 4 07 Jul 22:28:24 22:32:08 21° 264° (W) 22:35:36 437.250
HO-68 07 Jul 22:31:01 22:37:23 33° 263° (W) 22:43:37 435.675
COMPASS 1 07 Jul 22:38:59 22:42:24 24° 264° (W) 22:45:44 437.405
DX 1 07 Jul 22:39:05 22:42:02 19° 71° (ENE) 22:45:09 434.975-435.025
HUMSAT D 07 Jul 22:43:46 22:47:01 24° 73° (ENE) 22:50:20 437.325/437.525
VELOX 1 07 Jul 22:45:52 22:47:01 11° 69° (ENE) 22:48:28 145.980
CINEMA 3 07 Jul 22:46:24 22:50:19 27° 263° (W) 22:54:00 145.822/145.860
UKube-1 07 Jul 22:53:38 22:57:09 25° 72° (ENE) 23:00:44 .
ZACube-1 07 Jul 22:54:49 22:59:02 87° 257° (WSW) 23:03:13 437.345
Oscar 11 07 Jul 22:55:15 22:59:23 45° 261° (W) 23:03:31 145.826/435.025
AUBIESAT-1 07 Jul 23:00:53 23:05:04 41° 290° (WNW) 23:09:26 437.475
UNISAT 6 07 Jul 23:01:19 23:03:09 13° 92° (E) 23:05:16 437.425
CUBEBUG 2 07 Jul 23:09:33 23:13:24 31° 262° (W) 23:17:09 437.445
50 SAT 07 Jul 23:16:28 23:19:41 27° 74° (ENE) 23:22:58 437.505
SRMSAT 07 Jul 23:25:55 23:27:08 11° 199° (SSW) 23:28:11 437.500
FUNcube-1 07 Jul 23:29:49 23:33:35 31° 263° (W) 23:37:15 145.935
AISAT 07 Jul 23:30:59 23:35:11 42° 74° (ENE) 23:39:24 437.250
DELFI C3 07 Jul 23:34:45 23:37:47 20° 265° (W) 23:40:45 145.870
CUBEBUG 1 07 Jul 23:37:28 23:41:01 24° 72° (ENE) 23:44:38 437.445
M-CUBED/EXP-1 PRIME 07 Jul 23:40:35 23:42:54 14° 293° (WNW) 23:45:02 437.505
ANTELSAT 07 Jul 23:43:52 23:48:06 43° 99° (E) 23:52:27 437.575/2403.000
Cosmos 2499 07 Jul 23:49:03 23:56:30 39° 270° (W) 00:04:13 435.465 / 435.565
TIGRISAT 07 Jul 23:54:23 23:58:45 56° 101° (E) 00:03:13 435.000
UWE-3 07 Jul 23:55:04 23:56:45 12° 268° (W) 23:58:10 435.000/436.395/437.385
POPSAT HIP 1 07 Jul 23:58:10 00:01:22 22° 95° (E) 00:04:40 437.405
QB50P2 07 Jul 23:58:22 00:01:40 23° 96° (E) 00:05:04 145.880/145.840
DX 1 08 Jul 00:14:18 00:18:07 28° 263° (W) 00:21:53 434.975-435.025
ESTCUBE 1 08 Jul 00:16:29 00:21:01 90° 90° (E) 00:25:35 437.505/2401.250
VELOX 1 08 Jul 00:18:50 00:23:11 51° 260° (W) 00:27:32 145.980
HUMSAT D 08 Jul 00:19:47 00:22:44 18° 266° (W) 00:25:32 437.325/437.525
PCSat 08 Jul 00:21:34 00:24:55 17° 53° (NE) 00:28:28 145.827
SPROUT 08 Jul 00:25:00 00:28:18 22° 73° (ENE) 00:31:42 437.525
UKube-1 08 Jul 00:29:56 00:33:14 20° 265° (W) 00:36:25 .
UNISAT 6 08 Jul 00:35:55 00:40:09 42° 285° (WNW) 00:44:25 437.425
QB50P1 08 Jul 00:35:57 00:40:09 69° 102° (ESE) 00:44:19 145.935-145.965
NANOSAT C BR1 08 Jul 00:48:36 00:52:49 81° 283° (WNW) 00:57:00 145.865
TISAT 1 08 Jul 00:51:01 00:54:38 29° 74° (ENE) 00:58:19 437.305
50 SAT 08 Jul 00:52:17 00:54:22 14° 267° (W) 00:56:16 437.505
BUGSAT 1 08 Jul 00:54:06 00:58:07 70° 101° (E) 01:02:06 437.445
DUCHIFAT 1 08 Jul 00:54:12 00:58:22 70° 284° (WNW) 01:02:32 145.980
POLYITAN 1 08 Jul 01:04:24 01:08:27 48° 285° (WNW) 01:12:31 437.675
AISAT 08 Jul 01:09:52 01:11:59 13° 268° (W) 01:13:49 437.250
CUBEBUG 1 08 Jul 01:13:49 01:17:19 22° 265° (W) 01:20:41 437.445
ANTELSAT 08 Jul 01:22:21 01:24:35 13° 290° (WNW) 01:26:36 437.575/2403.000
BEESAT 08 Jul 01:29:22 01:31:11 12° 68° (ENE) 01:33:17 436.000
POPSAT HIP 1 08 Jul 01:33:52 01:37:09 22° 288° (WNW) 01:40:20 437.405
QB50P2 08 Jul 01:34:14 01:37:28 21° 288° (WNW) 01:40:35 145.880/145.840
TIGRISAT 08 Jul 01:34:35 01:35:07 10° 291° (WNW) 01:35:21 435.000
SWISSCUBE 08 Jul 01:43:51 01:47:17 21° 71° (ENE) 01:50:52 437.505
ITUPSAT 1 08 Jul 01:50:56 01:54:30 22° 71° (ENE) 01:58:14 437.325
SO-50 08 Jul 01:51:19 01:56:03 45° 59° (ENE) 02:00:41 436.795
SPROUT 08 Jul 02:00:52 02:04:18 22° 265° (W) 02:07:38 437.525
RS-15 08 Jul 02:03:11 02:13:49 65° 113° (ESE) 02:24:45 29.354- 29.394
PCSat 08 Jul 02:03:26 02:08:43 54° 249° (WSW) 02:13:57 145.827
Cosmos 2491 08 Jul 02:21:58 02:29:38 35° 75° (ENE) 02:37:26 435.465 / 435.565
TISAT 1 08 Jul 02:27:39 02:30:27 16° 266° (W) 02:33:04 437.305
Oscar 19 08 Jul 02:40:31 02:45:28 48° 100° (E) 02:50:26 437.125/150
YUBILEINY 08 Jul 02:48:12 02:54:49 26° 87° (E) 03:01:47 435.215
AIST 1 08 Jul 02:57:12 03:01:04 32° 79° (E) 03:04:55
ITAMSAT 1 08 Jul 03:01:58 03:05:26 19° 94° (E) 03:09:05 435.822/435.867
BEESAT 08 Jul 03:03:59 03:08:38 52° 260° (W) 03:13:18 436.000
KKS-1 08 Jul 03:15:11 03:18:56 28° 73° (ENE) 03:22:46 437.445
Gurwin Techsat 1B 08 Jul 03:17:53 03:22:29 30° 96° (E) 03:27:10 435.225
SWISSCUBE 08 Jul 03:20:43 03:24:57 31° 263° (W) 03:29:10 437.505
ITUPSAT 1 08 Jul 03:28:05 03:32:15 29° 263° (W) 03:36:22 437.325
SO-50 08 Jul 03:33:18 03:36:15 15° 251° (WSW) 03:38:55 436.795
STARS 08 Jul 03:56:45 04:01:00 51° 75° (ENE) 04:05:17 437.465
HORYU 2 08 Jul 04:15:37 04:17:00 12° 92° (E) 04:18:41 437.375
RS-15 08 Jul 04:17:37 04:27:03 31° 314° (NW) 04:36:25 29.354- 29.394
JAS-2 08 Jul 04:17:56 04:24:28 39° 98° (E) 04:31:36 435.910
Cosmos 2491 08 Jul 04:18:34 04:26:32 40° 271° (W) 04:34:20 435.465 / 435.565
Oscar 19 08 Jul 04:21:27 04:24:29 15° 291° (WNW) 04:27:15 437.125/150
AIST 1 08 Jul 04:36:05 04:38:27 14° 271° (W) 04:40:34
AO-7 08 Jul 04:39:33 04:46:34 31° 97° (E) 04:53:46 29.400- 29.500
ITAMSAT 1 08 Jul 04:40:16 04:45:06 39° 287° (WNW) 04:49:51 435.822/435.867
YUBILEINY 08 Jul 04:42:50 04:51:15 52° 281° (W) 04:59:37 435.215
VERMONT LUNAR 08 Jul 04:49:16 04:51:27 18° 142° (SE) 04:53:43 437.305
KKS-1 08 Jul 04:52:20 04:55:35 19° 265° (W) 04:58:41 437.445
Gurwin Techsat 1B 08 Jul 04:58:00 05:02:21 25° 289° (WNW) 05:06:34 435.225
Cosmos 2504 08 Jul 05:11:39 05:16:10 20° 87° (E) 05:20:59 435.465 / 435.565
MOZHAYETS 4 08 Jul 05:37:09 05:41:43 74° 260° (W) 05:46:19
BEESAT 3 08 Jul 05:43:11 05:44:59 13° 110° (ESE) 05:47:01 437.485
HORYU 2 08 Jul 05:49:37 05:53:55 46° 285° (WNW) 05:58:11 437.375
BEESAT 2 08 Jul 06:00:28 06:03:00 17° 110° (ESE) 06:05:42 435.950
JAS-2 08 Jul 06:03:09 06:09:23 34° 288° (WNW) 06:15:58 435.910
PHONESAT 2.4 08 Jul 06:05:57 06:07:34 13° 140° (SE) 06:09:18 2401.200-2431.200
CUBESAT XI-V 08 Jul 06:16:27 06:19:46 20° 71° (ENE) 06:23:14 437.345
ISS 08 Jul 06:21:16 06:24:18 38° 130° (SE) 06:27:20 145.825
VERMONT LUNAR 08 Jul 06:25:10 06:28:11 47° 334° (NNW) 06:31:11 437.305
AO-7 08 Jul 06:31:37 06:39:33 48° 292° (WNW) 06:47:21 29.400- 29.500
Cubesat XI-IV 08 Jul 06:42:51 06:45:35 15° 92° (E) 06:48:38 437.490
Cosmos 2504 08 Jul 07:01:13 07:07:56 50° 280° (W) 07:14:36 435.465 / 435.565
STRAND 1 08 Jul 07:11:47 07:16:04 28° 71° (ENE) 07:20:28 437.568
BEESAT 3 08 Jul 07:18:53 07:22:39 36° 301° (WNW) 07:26:26 437.485
O/OREOS (USA 219) 08 Jul 07:20:14 07:24:41 84° 110° (ESE) 07:29:09 437.305
BEESAT 2 08 Jul 07:37:13 07:40:51 30° 303° (WNW) 07:44:29 435.950
PHONESAT 2.4 08 Jul 07:41:52 07:45:17 78° 331° (NNW) 07:48:43 2401.200-2431.200
AIST 2 08 Jul 07:44:39 07:48:50 65° 115° (ESE) 07:53:04 435.215
DANDE 08 Jul 07:44:56 07:51:12 33° 96° (E) 07:56:23 436.750
CUTE-I 08 Jul 07:45:13 07:50:33 69° 101° (ESE) 07:55:51 437.470
CUBESAT XI-V 08 Jul 07:52:51 07:57:00 31° 263° (W) 08:01:09 437.345
CUSAT 1 08 Jul 07:54:26 08:00:51 54° 97° (E) 08:05:46 437.405
PRISM 08 Jul 07:54:35 07:58:45 78° 76° (ENE) 08:02:56 437.425
ISS 08 Jul 07:58:50 08:00:49 15° 325° (NW) 08:02:45 145.825
VERMONT LUNAR 08 Jul 08:03:38 08:05:32 15° 350° (N) 08:07:24 437.305
Cubesat XI-IV 08 Jul 08:20:51 08:26:02 51° 286° (WNW) 08:31:11 437.490
M-CUBED/EXP-1 PRIME 08 Jul 08:48:46 08:51:03 18° 68° (ENE) 08:53:30 437.505
STRAND 1 08 Jul 08:50:57 08:55:14 26° 264° (W) 08:59:25 437.568
RS-15 08 Jul 09:02:34 09:05:35 11° 25° (NNE) 09:09:22 29.354- 29.394
CUTE 1.7 + AOD 2 08 Jul 09:16:46 09:19:24 16° 93° (E) 09:22:13 437.475
BRITE-PL 08 Jul 09:17:02 09:21:10 63° 100° (E) 09:25:15 437.365/2234.400
GONETS M04 08 Jul 09:19:13 09:27:48 62° 92° (E) 09:36:23
CANX-2 08 Jul 09:20:21 09:23:31 21° 95° (E) 09:26:50 2200.000
PHONESAT 2.4 08 Jul 09:21:02 09:23:39 20° 346° (NNW) 09:26:15 2401.200-2431.200
DANDE 08 Jul 09:28:05 09:34:18 30° 280° (W) 09:39:12 436.750
CUTE-I 08 Jul 09:28:10 09:30:07 12° 294° (WNW) 09:31:42 437.470
CUSAT 1 08 Jul 09:39:55 09:43:20 15° 283° (WNW) 09:46:02 437.405
VERMONT LUNAR 08 Jul 09:41:34 09:43:13 13° 7° (N) 09:44:53 437.305
AUBIESAT-1 08 Jul 09:43:51 09:47:08 75° 254° (WSW) 09:50:33 437.475
SEEDS 08 Jul 09:57:02 10:01:04 42° 98° (E) 10:05:08 437.485
AAUSAT CUBESAT 2 08 Jul 09:57:42 10:01:16 27° 96° (E) 10:04:53 437.432
HO-68 08 Jul 10:03:54 10:11:01 67° 102° (ESE) 10:18:08 435.675
GOMX 1 08 Jul 10:08:49 10:12:50 50° 284° (WNW) 10:16:53 467.674
UWE-3 08 Jul 10:13:07 10:14:50 12° 93° (E) 10:16:51 435.000/436.395/437.385
M-CUBED/EXP-1 PRIME 08 Jul 10:23:50 10:25:53 15° 262° (W) 10:27:51 437.505
COMPASS 1 08 Jul 10:27:03 10:31:18 81° 101° (E) 10:35:31 437.405
Cosmos 2499 08 Jul 10:27:26 10:33:10 29° 89° (E) 10:39:08 435.465 / 435.565
DOVE 4 08 Jul 10:32:03 10:36:01 45° 284° (WNW) 10:40:05 437.250
ANTELSAT 08 Jul 10:38:32 10:41:24 18° 72° (ENE) 10:44:26 437.575/2403.000
CINEMA 3 08 Jul 10:45:55 10:50:10 78° 282° (WNW) 10:54:32 145.822/145.860
Oscar 11 08 Jul 10:48:07 10:52:19 48° 99° (E) 10:56:32 145.826/435.025
TIGRISAT 08 Jul 10:48:26 10:51:47 23° 73° (ENE) 10:55:12 435.000
ZACube-1 08 Jul 10:49:17 10:52:54 27° 97° (E) 10:56:40 437.345
CUTE 1.7 + AOD 2 08 Jul 10:51:36 10:55:23 30° 286° (WNW) 10:59:06 437.475
CANX-2 08 Jul 10:55:54 10:59:24 24° 287° (WNW) 11:02:49 2200.000
PHONESAT 2.4 08 Jul 11:00:24 11:02:28 15° 4° (N) 11:04:32 2401.200-2431.200
CUBEBUG 2 08 Jul 11:05:21 11:09:39 79° 100° (E) 11:14:04 437.445
RS-15 08 Jul 11:11:20 11:22:24 45° 53° (NE) 11:33:59 29.354- 29.394
VERMONT LUNAR 08 Jul 11:17:48 11:20:40 34° 23° (NNE) 11:23:35 437.305
DELFI C3 08 Jul 11:18:13 11:22:18 80° 101° (ESE) 11:26:21 145.870
GONETS M04 08 Jul 11:18:34 11:25:17 23° 289° (WNW) 11:31:33
FUNcube-1 08 Jul 11:22:56 11:27:13 72° 101° (E) 11:31:35 145.935
QB50P1 08 Jul 11:23:34 11:26:57 24° 73° (ENE) 11:30:24 145.935-145.965
UNISAT 6 08 Jul 11:29:01 11:33:18 82° 79° (ENE) 11:37:34 437.425
AISAT 08 Jul 11:29:18 11:31:02 12° 92° (E) 11:33:03 437.250
AAUSAT CUBESAT 2 08 Jul 11:33:45 11:36:41 18° 288° (WNW) 11:39:28 437.432
SEEDS 08 Jul 11:34:45 11:36:32 12° 290° (WNW) 11:38:05 437.485
NANOSAT C BR1 08 Jul 11:35:34 11:39:21 33° 74° (ENE) 11:43:11 145.865
BUGSAT 1 08 Jul 11:39:00 11:42:16 23° 73° (ENE) 11:45:36 437.445
DUCHIFAT 1 08 Jul 11:40:50 11:44:44 38° 75° (ENE) 11:48:40 145.980
UWE-3 08 Jul 11:47:31 11:51:33 39° 285° (WNW) 11:55:38 435.000/436.395/437.385
POLYITAN 1 08 Jul 11:51:21 11:55:30 56° 76° (ENE) 11:59:38 437.675
HO-68 08 Jul 11:53:22 11:58:13 19° 296° (WNW) 12:02:43 435.675
DX 1 08 Jul 12:07:39 12:11:59 76° 102° (ESE) 12:16:17 434.975-435.025
HUMSAT D 08 Jul 12:07:49 12:12:01 78° 283° (WNW) 12:16:14 437.325/437.525
ANTELSAT 08 Jul 12:14:25 12:18:03 26° 263° (W) 12:21:37 437.575/2403.000
VELOX 1 08 Jul 12:15:02 12:19:15 46° 99° (E) 12:23:29 145.980
ESTCUBE 1 08 Jul 12:15:25 12:19:20 29° 97° (E) 12:23:17 437.505/2401.250
Cosmos 2499 08 Jul 12:19:44 12:26:09 36° 283° (WNW) 12:32:32 435.465 / 435.565
POPSAT HIP 1 08 Jul 12:19:50 12:24:02 62° 259° (W) 12:28:13 437.405
QB50P2 08 Jul 12:20:18 12:24:29 59° 259° (W) 12:28:39 145.880/145.840
UKube-1 08 Jul 12:21:50 12:26:09 78° 283° (WNW) 12:30:26 .
TIGRISAT 08 Jul 12:25:13 12:28:29 20° 265° (W) 12:31:37 435.000
ZACube-1 08 Jul 12:26:02 12:29:07 19° 288° (WNW) 12:32:06 437.345
Oscar 11 08 Jul 12:26:44 12:28:08 11° 290° (WNW) 12:29:15 145.826/435.025
50 SAT 08 Jul 12:31:19 12:35:15 82° 282° (WNW) 12:39:12 437.505
PHONESAT 2.4 08 Jul 12:38:06 12:41:09 29° 20° (NNE) 12:44:14 2401.200-2431.200
VERMONT LUNAR 08 Jul 12:54:45 12:57:31 28° 216° (SW) 13:00:16 437.305
QB50P1 08 Jul 12:59:36 13:02:46 20° 265° (W) 13:05:49 145.935-145.965
AISAT 08 Jul 13:03:43 13:07:51 40° 286° (WNW) 13:11:56 437.250
CUBEBUG 1 08 Jul 13:07:18 13:11:38 74° 283° (WNW) 13:15:55 437.445
JUGNU 08 Jul 13:09:26 13:10:24 10° 161° (SSE) 13:11:33 437.505
NANOSAT C BR1 08 Jul 13:12:57 13:15:19 14° 267° (W) 13:17:28 145.865
BUGSAT 1 08 Jul 13:14:23 13:17:39 21° 265° (W) 13:20:48 437.445
DUCHIFAT 1 08 Jul 13:18:51 13:20:44 12° 268° (W) 13:22:21 145.980
RS-15 08 Jul 13:23:47 13:35:00 47° 250° (WSW) 13:46:17 29.354- 29.394
Oscar 19 08 Jul 13:51:49 13:56:31 39° 73° (ENE) 14:01:17 437.125/150
SPROUT 08 Jul 13:52:09 13:56:25 83° 283° (WNW) 14:00:41 437.525
ESTCUBE 1 08 Jul 13:52:46 13:56:01 19° 289° (WNW) 13:59:06 437.505/2401.250
VELOX 1 08 Jul 13:53:43 13:55:27 12° 291° (WNW) 13:56:55 145.980
